Previsão horária em Barskoon

Hoje, 21 Outubro, Quarta-feira

Tempo Temperatura Precipitação Vento Pressão Humidade
00:00 +3°C° 0 mm 3 m/s 590 mmHg 19%
01:00 +3°C° 0 mm 3 m/s 589 mmHg 18%
02:00 +2°C° 0 mm 3 m/s 589 mmHg 17%
03:00 +2°C° 0 mm 3 m/s 589 mmHg 16%
04:00 +2°C° 0 mm 3 m/s 589 mmHg 14%
05:00 +3°C° 0 mm 2 m/s 589 mmHg 13%
06:00 +4°C° 0 mm 2 m/s 589 mmHg 16%
07:00 +4°C° 0 mm 2 m/s 590 mmHg 20%
08:00 +5°C° 0 mm 2 m/s 590 mmHg 23%
09:00 +8°C° 0 mm 1 m/s 590 mmHg 30%
10:00 +9°C° 0 mm 1 m/s 590 mmHg 36%
11:00 +10°C° 0 mm 1 m/s 591 mmHg 42%
12:00 +10°C° 0 mm 1 m/s 590 mmHg 46%
13:00 +10°C° 0 mm 1 m/s 590 mmHg 50%
14:00 +10°C° 0 mm 1 m/s 590 mmHg 54%
15:00 +8°C° 0 mm 1 m/s 590 mmHg 51%
16:00 +6°C° 0 mm 1 m/s 589 mmHg 48%
17:00 +4°C° 0 mm 1 m/s 589 mmHg 45%
18:00 +3°C° 0 mm 2 m/s 590 mmHg 40%
19:00 +3°C° 0 mm 2 m/s 590 mmHg 34%
20:00 +2°C° 0 mm 2 m/s 590 mmHg 29%
21:00 +2°C° 0 mm 2 m/s 590 mmHg 29%
22:00 +2°C° 0 mm 2 m/s 589 mmHg 29%
23:00 +2°C° 0 mm 2 m/s 589 mmHg 28%

Amanhã, 22 Outubro, Quinta-feira

Tempo Temperatura Precipitação Vento Pressão Humidade
00:00 +2°C° 0 mm 2 m/s 589 mmHg 30%
01:00 +2°C° 0 mm 2 m/s 589 mmHg 32%
02:00 0°C° 0 mm 3 m/s 588 mmHg 34%
03:00 0°C° 0 mm 3 m/s 588 mmHg 35%
04:00 0°C° 0 mm 3 m/s 588 mmHg 36%
05:00 0°C° 0 mm 3 m/s 588 mmHg 38%
06:00 0°C° 0 mm 3 m/s 588 mmHg 41%
07:00 +1°C° 0 mm 3 m/s 588 mmHg 44%
08:00 +2°C° 0 mm 3 m/s 588 mmHg 47%
09:00 +3°C° 0 mm 3 m/s 588 mmHg 50%
10:00 +5°C° 0 mm 2 m/s 588 mmHg 54%
11:00 +7°C° 0 mm 2 m/s 588 mmHg 57%
12:00 +7°C° 0 mm 2 m/s 588 mmHg 57%
13:00 +8°C° 0 mm 1 m/s 588 mmHg 58%
14:00 +9°C° 0 mm 1 m/s 588 mmHg 58%
15:00 +8°C° 0 mm 1 m/s 588 mmHg 58%
16:00 +7°C° 0 mm 1 m/s 588 mmHg 58%
17:00 +5°C° 0 mm 1 m/s 588 mmHg 59%
18:00 +5°C° 0 mm 1 m/s 587 mmHg 57%
19:00 +3°C° 0 mm 2 m/s 587 mmHg 56%
20:00 +3°C° 0 mm 2 m/s 587 mmHg 55%
21:00 +1°C° 0 mm 3 m/s 587 mmHg 56%
22:00 +1°C° 0 mm 3 m/s 587 mmHg 57%
23:00 0°C° 0 mm 3 m/s 586 mmHg 57%

Depois de amanhã, 23 Outubro, Sexta-feira

Tempo Temperatura Precipitação Vento Pressão Humidade
00:00 0°C° 0 mm 3 m/s 586 mmHg 57%
01:00 0°C° 0 mm 3 m/s 586 mmHg 57%
02:00 0°C° 0 mm 3 m/s 585 mmHg 57%
03:00 +1°C° 0 mm 3 m/s 585 mmHg 56%
04:00 +1°C° 0 mm 3 m/s 585 mmHg 56%
05:00 +2°C° 0 mm 2 m/s 585 mmHg 55%
06:00 +3°C° 0 mm 2 m/s 585 mmHg 56%
07:00 +3°C° 0 mm 2 m/s 586 mmHg 57%
08:00 +4°C° 0 mm 2 m/s 586 mmHg 58%
09:00 +5°C° 0 mm 2 m/s 586 mmHg 60%
10:00 +6°C° 0 mm 2 m/s 586 mmHg 62%
11:00 +7°C° 0 mm 2 m/s 586 mmHg 64%
12:00 +7°C° 0 mm 2 m/s 586 mmHg 67%
13:00 +6°C° 0 mm 2 m/s 586 mmHg 69%
14:00 +6°C° 0 mm 2 m/s 586 mmHg 72%
15:00 +5°C° 0.1 mm 2 m/s 586 mmHg 79%
16:00 +5°C° 0.1 mm 2 m/s 586 mmHg 86%
17:00 +4°C° 0.1 mm 2 m/s 586 mmHg 94%
18:00 +2°C° 0.1 mm 3 m/s 587 mmHg 91%
19:00 0°C° 0.1 mm 4 m/s 587 mmHg 87%
20:00 0°C° 0.1 mm 5 m/s 587 mmHg 84%
21:00 -1°C° 0 mm 5 m/s 587 mmHg 82%
22:00 -1°C° 0 mm 5 m/s 588 mmHg 81%
23:00 -2°C° 0 mm 5 m/s 588 mmHg 79%

24 Outubro, Sábado

Tempo Temperatura Precipitação Vento Pressão Humidade
00:00 -4°C° 0 mm 5 m/s 588 mmHg 79%
01:00 -4°C° 0 mm 5 m/s 588 mmHg 78%
02:00 -4°C° 0 mm 4 m/s 587 mmHg 78%
03:00 -4°C° 0 mm 4 m/s 588 mmHg 77%
04:00 -4°C° 0 mm 4 m/s 588 mmHg 76%
05:00 -5°C° 0 mm 4 m/s 588 mmHg 75%
06:00 -4°C° 0 mm 3 m/s 588 mmHg 75%
07:00 -2°C° 0 mm 3 m/s 589 mmHg 75%
08:00 -2°C° 0 mm 3 m/s 589 mmHg 74%
09:00 -1°C° 0 mm 3 m/s 589 mmHg 73%
10:00 +1°C° 0 mm 2 m/s 588 mmHg 72%
11:00 +2°C° 0 mm 2 m/s 588 mmHg 71%
12:00 +3°C° 0 mm 2 m/s 588 mmHg 74%
13:00 +4°C° 0 mm 1 m/s 588 mmHg 77%
14:00 +5°C° 0 mm 1 m/s 588 mmHg 79%
15:00 +3°C° 0 mm 1 m/s 588 mmHg 83%
16:00 +2°C° 0 mm 1 m/s 588 mmHg 87%
17:00 +1°C° 0 mm 1 m/s 588 mmHg 90%
18:00 +1°C° 0 mm 1 m/s 588 mmHg 82%
19:00 -1°C° 0 mm 2 m/s 589 mmHg 73%
20:00 -1°C° 0 mm 2 m/s 589 mmHg 64%
21:00 -1°C° 0 mm 2 m/s 589 mmHg 62%
22:00 -1°C° 0 mm 2 m/s 589 mmHg 60%
23:00 -1°C° 0 mm 2 m/s 589 mmHg 57%

25 Outubro, Domingo

Tempo Temperatura Precipitação Vento Pressão Humidade
00:00 -1°C° 0 mm 2 m/s 589 mmHg 57%
01:00 +1°C° 0 mm 1 m/s 589 mmHg 56%
02:00 +1°C° 0 mm 1 m/s 589 mmHg 56%
03:00 +1°C° 0 mm 1 m/s 589 mmHg 54%
04:00 +1°C° 0 mm 1 m/s 590 mmHg 53%
05:00 +1°C° 0 mm 1 m/s 590 mmHg 52%
06:00 -1°C° 0 mm 2 m/s 590 mmHg 53%
07:00 +1°C° 0 mm 2 m/s 590 mmHg 53%
08:00 +1°C° 0 mm 2 m/s 591 mmHg 54%
09:00 +2°C° 0 mm 2 m/s 591 mmHg 56%
10:00 +3°C° 0 mm 2 m/s 591 mmHg 59%
11:00 +4°C° 0 mm 2 m/s 591 mmHg 61%
12:00 +5°C° 0 mm 1 m/s 591 mmHg 67%
13:00 +5°C° 0 mm 1 m/s 590 mmHg 73%
14:00 +5°C° 0 mm 1 m/s 590 mmHg 79%
15:00 +4°C° 0 mm 1 m/s 591 mmHg 80%
16:00 +4°C° 0 mm 1 m/s 591 mmHg 82%
17:00 +3°C° 0 mm 1 m/s 591 mmHg 84%
18:00 +3°C° 0 mm 1 m/s 591 mmHg 81%
19:00 +2°C° 0 mm 1 m/s 591 mmHg 78%
20:00 +1°C° 0 mm 1 m/s 592 mmHg 74%
21:00 -1°C° 0 mm 2 m/s 592 mmHg 75%
22:00 -1°C° 0 mm 2 m/s 592 mmHg 75%
23:00 -1°C° 0 mm 2 m/s 592 mmHg 75%

26 Outubro, Segunda-feira

Tempo Temperatura Precipitação Vento Pressão Humidade
00:00 -2°C° 0 mm 2 m/s 592 mmHg 75%
01:00 -2°C° 0 mm 2 m/s 591 mmHg 76%
02:00 -2°C° 0 mm 3 m/s 591 mmHg 76%
03:00 -2°C° 0 mm 3 m/s 591 mmHg 75%
04:00 -2°C° 0 mm 3 m/s 592 mmHg 73%
05:00 -2°C° 0 mm 3 m/s 592 mmHg 72%
06:00 -1°C° 0 mm 3 m/s 592 mmHg 69%
07:00 -1°C° 0 mm 3 m/s 592 mmHg 67%
08:00 0°C° 0 mm 3 m/s 592 mmHg 65%
09:00 +2°C° 0 mm 2 m/s 592 mmHg 62%
10:00 +4°C° 0 mm 2 m/s 592 mmHg 59%
11:00 +5°C° 0 mm 2 m/s 591 mmHg 56%
12:00 +6°C° 0 mm 2 m/s 591 mmHg 58%
13:00 +6°C° 0 mm 2 m/s 591 mmHg 59%
14:00 +6°C° 0 mm 2 m/s 591 mmHg 61%
15:00 +5°C° 0 mm 2 m/s 591 mmHg 58%
16:00 +3°C° 0 mm 2 m/s 590 mmHg 55%
17:00 +2°C° 0 mm 2 m/s 590 mmHg 52%
18:00 +2°C° 0 mm 2 m/s 590 mmHg 49%
19:00 +1°C° 0 mm 3 m/s 590 mmHg 45%
20:00 +1°C° 0 mm 3 m/s 590 mmHg 41%
21:00 +1°C° 0 mm 3 m/s 590 mmHg 40%
22:00 +1°C° 0 mm 3 m/s 590 mmHg 38%
23:00 +1°C° 0 mm 3 m/s 590 mmHg 36%

27 Outubro, Terça-feira

Tempo Temperatura Precipitação Vento Pressão Humidade
00:00 +1°C° 0 mm 3 m/s 589 mmHg 35%
01:00 +1°C° 0 mm 3 m/s 589 mmHg 33%
02:00 +1°C° 0 mm 3 m/s 589 mmHg 31%
03:00 +1°C° 0 mm 3 m/s 588 mmHg 29%
04:00 +2°C° 0 mm 2 m/s 588 mmHg 27%
05:00 +1°C° 0 mm 2 m/s 588 mmHg 25%
06:00 +2°C° 0 mm 2 m/s 588 mmHg 27%
07:00 +3°C° 0 mm 2 m/s 589 mmHg 29%
08:00 +4°C° 0 mm 2 m/s 589 mmHg 30%
09:00 +5°C° 0 mm 2 m/s 589 mmHg 35%
10:00 +6°C° 0 mm 2 m/s 589 mmHg 40%
11:00 +8°C° 0 mm 2 m/s 589 mmHg 45%
12:00 +8°C° 0 mm 2 m/s 588 mmHg 48%
13:00 +8°C° 0 mm 2 m/s 588 mmHg 51%
14:00 +9°C° 0 mm 1 m/s 588 mmHg 53%
15:00 +7°C° 0 mm 2 m/s 588 mmHg 46%
16:00 +6°C° 0 mm 2 m/s 588 mmHg 38%
17:00 +4°C° 0 mm 2 m/s 588 mmHg 30%
18:00 +4°C° 0 mm 2 m/s 588 mmHg 27%
19:00 +4°C° 0 mm 2 m/s 588 mmHg 25%
20:00 +4°C° 0 mm 2 m/s 588 mmHg 22%
21:00 +3°C° 0 mm 3 m/s 588 mmHg 23%
22:00 +3°C° 0 mm 3 m/s 588 mmHg 24%
23:00 +3°C° 0 mm 3 m/s 588 mmHg 24%
Mostrar mais